Regional Weather Roundup
Issued by NWS Little Rock, AR

Home | Current Version | Previous Version | Graphics & Text | Print | Product List | Glossary On
Versions: 1 2 3 4 5 6 7 8 9 10 11 12 13 14 15 16 17 18 19 20 21 22 23 24 25 26 27 28 29 30 31 32 33 34 35 36 37 38 39 40 41 42 43 44 45 46 47 48 49 50
000
ASUS44 KLZK 222105
RWRLZK

WEATHER ROUNDUP FOR ARKANSAS
NATIONAL WEATHER SERVICE LITTLE ROCK AR
400 PM CDT SUN OCT 22 2017

NOTE: "FAIR" INDICATES FEW OR NO CLOUDS BELOW 12,000 FEET WITH NO
SIGNIFICANT WEATHER AND/OR OBSTRUCTIONS TO VISIBILITY.

ARZ001-003-010-029-222200-
NORTHWEST ARKANSAS

CITY           SKY/WX    TMP DP  RH WIND       PRES   REMARKS
FAYETTEVILLE   CLOUDY    58  48  69 N9G21     30.13S
FORT SMITH     CLOUDY    67  48  50 N13       30.09F
HARRISON       LGT RAIN  51  51 100 NW10      30.10R FOG
BENTONVILLE    MOSUNNY   58  45  62 N7        30.15S
ROGERS         PTSUNNY   58  47  66 N10       30.14S
SILOAM SPGS    MOSUNNY   61  44  53 N16       30.13F
HIGHFILL       PTSUNNY   60  46  59 N10       30.13F
SPRINGDALE     PTSUNNY   57  46  67 N14       30.14S
$$

ARZ004-005-016-222200-
NORTH CENTRAL ARKANSAS

CITY           SKY/WX    TMP DP  RH WIND       PRES   REMARKS
BATESVILLE     LGT RAIN  58  56  93 NW8       30.03R
FLIPPIN        RAIN      55  53  93 NW6       30.09R
MTN HOME       RAIN      53  53 100 VRB3      30.07R FOG
$$

ARZ040-041-222200-
WEST CENTRAL ARKANSAS

CITY           SKY/WX    TMP DP  RH WIND       PRES   REMARKS
MENA           CLOUDY    61  59  94 NW7       30.09S
MOUNT IDA      CLOUDY    63  53  70 N7        30.04S
$$

ARZ009-017-025-026-028-222200-
NORTHEAST ARKANSAS

CITY           SKY/WX    TMP DP  RH WIND       PRES   REMARKS
JONESBORO      CLOUDY    68  64  87 W8        29.96F
NEWPORT        CLOUDY    67  60  78 W16       29.99S
WALNUT RIDGE   LGT RAIN  66  60  81 NW8       29.98S
BLYTHEVILLE    PTSUNNY   71  68  90 SW7       29.95F
$$

ARZ022-023-033-042-044-222200-
CENTRAL ARKANSAS

CITY           SKY/WX    TMP DP  RH WIND       PRES   REMARKS
LITTLE ROCK    CLOUDY    62  60  93 NW9       30.02F
N LITTLE ROCK    N/A     60  58  92 NW6       30.02F
JACKSONVILLE   PTSUNNY   62  60  91 W8        30.00F
SEARCY         CLOUDY    66  61  84 VRB5      30.01F
HOT SPRINGS    CLOUDY    66  56  70 NW8G18    30.04S
RUSSELLVILLE   CLOUDY    60  55  83 N9        30.05S
CLINTON        DRIZZLE   57  54  88 CALM      30.05F
$$

ARZ036-222200-
EAST ARKANSAS

CITY           SKY/WX    TMP DP  RH WIND       PRES   REMARKS
WEST MEMPHIS   LGT RAIN  65  65 100 W5        29.97R FOG
$$

ARZ050-053-066-070-073-222200-
SOUTHWEST ARKANSAS

CITY           SKY/WX    TMP DP  RH WIND       PRES   REMARKS
ARKADELPHIA    CLOUDY    67  57  70 NW9G16    30.04S
CAMDEN         PTSUNNY   68  57  68 N6        30.02S
TEXARKANA      LGT RAIN  67  58  72 NW14G24   30.05R
EL DORADO      CLOUDY    67  59  75 NW9       30.04S
DE QUEEN       PTSUNNY   65  55  70 NW14G20   30.07R
$$

ARZ056-057-069-222200-
SOUTHEAST ARKANSAS

CITY           SKY/WX    TMP DP  RH WIND       PRES   REMARKS
PINE BLUFF     CLOUDY    64  59  83 NW6       30.01F
STUTTGART      LGT RAIN  63  59  87 W12       30.00F
MONTICELLO     LGT RAIN  66  61  84 NW3       30.01S

$$





USA.gov is the U.S. government's official web portal to all federal, state and local government web resources and services.